Weather in Varna

Russia / Chelyabinsk Oblast     53°22′56″N   60°58′31″E
temp.,
°C
wind,
m/s
gust,
m/s
humid.,
%
clouds,
%
prec.,
mm/h
press.,
hPa
HPBL,
m
11 april, sun
sun1123:000sse339686 0.0 103953
02:00−1sse369887 0.0 1039176
05:00+1ssw2697100 0.0 1039167
08:00+2s259668 0.0 1039178
11:00+5s358774 0.0 1039369
14:00+7s467389 0.0 1038458
17:00+8s3573100 0.0 1037395
20:00+5ssw338499 0.0 103736
12 april, mon
mon1223:00+3ssw348519 0.0 103747
02:00+2ssw34835 0.0 103745
05:00+2sw33775 0.0 103724
08:00+4sw237044 0.0 103791
11:00+9sw225124 0.0 1037292
14:00+13ssw114039 0.0 1036516
17:00+14e113748 0.0 1035629
20:00+10e225652 0.0 103611
13 april, tue
tue1323:00+8ene226823 0.0 103711
02:00+6ene33898 0.0 103830
05:00+6ene349989 0.0 103965
08:00+7e239893 0.0 1039126
11:00+10e1289100 0.0 1038376
14:00+12ese2276100 0.0 1037646
17:00+12se1173100 0.0 1036502
20:00+11se1174100 0.0 103510
14 april, wed
wed1423:00+11s117497 0.0 103510
02:00+9sw118218 0.0 103410
05:00+7ssw008653 0.0 103310
08:00+8nw00845 0.0 103243
11:00+12ese11705 0.0 1031484
14:00+15se22555 0.0 1029897
17:00+16ese11490 0.0 1027952
20:00+13se11630 0.0 102610
15 april, thu
thu1523:00+10s22730 0.0 102517
02:00+9sw11750 0.0 102410
05:00+7wsw11800 0.0 102310
08:00+9wnw11770 0.0 102239
11:00+14e11610 0.0 1021434
14:00+16se11480 0.0 1019905
17:00+17se11430 0.0 10171064
20:00+14sse22530 0.0 101611